Location: Tucson
(32.2217°N, 110.9265°W)
Time: 01:28:46
(UTC-07:00)

LightSail 2 - Pass Details

Date: 10 December 2019
Orbit: 704 x 719 km, 24.0° (Epoch: 24 January)

Event Time Altitude Azimuth Distance (km) Brightness Sun altitude
Rises 19:01:21 0° 256° (WSW) 3,097 10.0 -21.0°
Reaches altitude 10° 19:04:49 10° 233° (SW) 2,172 8.6 -21.7°
Maximum altitude 19:07:36 15° 200° (SSW) 1,865 7.7 -22.3°
Drops below altitude 10° 19:10:23 10° 166° (SSE) 2,163 7.6 -22.9°
Enters shadow 19:11:48 - 155° (SSE) 2,490 7.8 -23.2°
